Home   Weather   Pago Pago   Past weeks

Flag for American Samoa Past Weather in Pago Pago, American Samoa — Yesterday and Last 2 Weeks

Now
79 °F

Partly cloudy.


Feels Like: 83 °F
Forecast: 80 / 88 °F
Wind: 2 mph from North

Location: Pago Pago / Int. Airp.

Current Time: Apr 27, 2017 at 4:22:54 am

Latest Report: Apr 27, 2017 at 3:50 am


Visibility: 10 mi

Pressure: 29.79 "Hg

Humidity: 100%

Dew Point: 79 °F

Location of Pago PagoLocation

Past Weather in Pago Pago — Graph

°F

Pago Pago Temperature Yesterday

Maximum temperature yesterday: 88 °F (at 1:54 pm)
Minimum temperature yesterday: 79 °F (at 5:52 am)
Average temperature yesterday: 83 °F

High & Low Weather Summary for the Past Weeks

 TemperatureHumidityPressure
High91 °F (Apr 23, 1:50 pm)100% (Apr 12, 2:50 am)29.91 "Hg (Apr 12, 2:50 am)
Low75 °F (Apr 18, 3:52 am)70% (Apr 13, 11:50 am)29.66 "Hg (Apr 13, 4:52 am)
Average83 °F90%29.80 "Hg
* Reported Apr 12 2:50 am — Apr 27 2:50 am, Pago Pago, Weather by CustomWeather, © 2017

Note: Actual official high and low records may vary slightly from our data, if they occured in-between our weather recording intervals... More about our weather records

Advertising

Pago Pago Weather History for the Previous 24 Hours

Scroll right to see more
 ConditionsComfort  
Time TempWeatherWind HumidityBarometerVisibility
2:50 am
Thu, Apr 27
81 °FSprinkles. Partly cloudy.No wind100%29.80 "Hg9 mi
1:50 am81 °FPassing clouds.No wind98%29.81 "Hg10 mi
12:51 am83 °FPassing clouds.No wind93%29.83 "Hg10 mi
11:52 pm
Wed, Apr 26
82 °FPassing clouds.No wind94%29.83 "Hg10 mi
10:50 pm82 °FPassing clouds.No wind94%29.83 "Hg10 mi
9:50 pm82 °FPassing clouds.No wind95%29.83 "Hg10 mi
8:50 pm84 °FPassing clouds.5 mph90%29.84 "Hg10 mi
7:52 pm83 °FPassing clouds.6 mph89%29.82 "Hg10 mi
6:50 pm84 °FPartly cloudy.5 mph89%29.80 "Hg10 mi
5:50 pm85 °FBroken clouds.6 mph86%29.79 "Hg11 mi
4:50 pm86 °FBroken clouds.3 mph84%29.78 "Hg11 mi
3:50 pm88 °FBroken clouds.2 mph80%29.77 "Hg12 mi
2:50 pm88 °FBroken clouds.10 mph79%29.76 "Hg12 mi
1:54 pm88 °FBroken clouds.7 mph78%29.78 "Hg12 mi
12:51 pm86 °FBroken clouds.5 mph84%29.80 "Hg12 mi
11:51 am86 °FBroken clouds.9 mph84%29.83 "Hg12 mi
10:50 am86 °FBroken clouds.8 mph84%29.85 "Hg12 mi
9:51 am85 °FBroken clouds.10 mph90%29.86 "Hg12 mi
8:52 am83 °FPartly sunny.3 mph92%29.87 "Hg12 mi
6:50 am79 °FSprinkles. Cloudy.3 mph100%29.82 "Hg8 mi
5:52 am79 °FOvercast.7 mph99%29.80 "Hg10 mi
4:50 am80 °FPartly cloudy.6 mph99%29.80 "Hg10 mi
Weather by CustomWeather, © 2017

See weather overviewHow to use our weather pages